Skip Page Navigation
NASA JPL Caltech
NASA Logo - Jet Propulsion Laboratory + View the NASA Portal
+ Center for Near-Earth Object Studies
JPL Home Earth Solar System Stars & Galaxies Technology
JPL Solar System Dynamics
BODIES ORBITS EPHEMERIDES TOOLS PHYSICAL DATA DISCOVERY FAQ SITE MAP
JPL Small-Body Database Browser
Search: [ help ]  
123652 (2000 YC73)
Classification: Main-belt Asteroid          SPK-ID: 2123652
Ephemeris | Orbit Diagram | Orbital Elements | Mission Design | Physical Parameters | Discovery Circumstances | Close-Approach Data ]

[ show orbit diagram ]
Orbital Elements at Epoch 2459000.5 (2020-May-31.0) TDB
Reference: JPL 14 (heliocentric ecliptic J2000)
 Element Value Uncertainty (1-sigma)   Units 
e .1727372189884088 5.312e-08  
a 3.048920092478285 2.8626e-08 au
q 2.522258114785704 1.729e-07 au
i 3.197969070940558 5.1479e-06 deg
node 95.7531804557206 0.00010119 deg
peri 285.1100466747591 0.00010242 deg
M 283.5388625347811 1.9782e-05 deg
tp 2459413.505413315621
(2021-Jul-18.00541332)
0.00011098 TDB
period 1944.542727490248
5.32
2.7386e-05
7.498e-08
d
yr
n .1851334994652646 2.6073e-09 deg/d
Q 3.575582070170866 3.3571e-08 au
  Orbit Determination Parameters
   # obs. used (total)      637  
   data-arc span      6743 days (18.46 yr)  
   first obs. used      2000-11-21  
   last obs. used      2019-05-09  
   planetary ephem.      DE431  
   SB-pert. ephem.      SB431-N16  
   condition code      0  
   norm. resid. RMS      .56501  
   source      ORB  
   producer      Otto Matic  
   solution date      2019-May-30 07:01:21  

Additional Information
 Earth MOID = 1.52747 au 
 Jupiter MOID = 1.88762 au 
 T_jup = 3.212 
[ show covariance matrix ]

Ephemeris | Orbit Diagram | Orbital Elements | Mission Design | Physical Parameters | Discovery Circumstances | Close-Approach Data ]

Physical Parameter Table
Parameter Symbol Value Units Sigma Reference Notes
absolute magnitude H 15.0   n/a MPO436599  
diameter diameter 5.603 km 0.144 urn:nasa:pds:neowise_diameters_albedos::2.0[mainbelt] (http://adsabs.harvard.edu/abs/2011ApJ...741...68M)  
geometric albedo albedo 0.056   0.008 urn:nasa:pds:neowise_diameters_albedos::2.0[mainbelt] (http://adsabs.harvard.edu/abs/2011ApJ...741...68M)  

123652 (2000 YC73)          Discovered 2000-Dec-30 by LINEAR at Socorro
Reference: 20060314/Numbers.arcLast Updated: 2006-03-23

[ show close-approach data ]
Ephemeris | Orbit Diagram | Orbital Elements | Mission Design | Physical Parameters | Discovery Circumstances | Close-Approach Data ]
ABOUT SSD CREDITS/AWARDS PRIVACY/COPYRIGHT GLOSSARY LINKS
FirstGov 2020-Oct-26 15:19 UT
(server date/time)  
NASA Home Page
Site Manager:   Ryan S. Park
Webmaster  Alan B. Chamberlin